Wind_Speed
10 9 10 11 12 13 13 14 14 12 9 8 9 8 9 9 7 6 5 5 4 8 21 26 24 20 18 16 12 11 10 6 4 4 2 1 1 2 3 4 11 10 12
9 11 12 12 11 13 14 14 13 11 9 9 10 10 10 9 8 6 5 3 5 3 9 16 26 20 18 15 12 12 12 9 6 6 3 1 2 1 0 2 3 4 8
8 10 11 12 12 14 15 16 14 12 9 9 10 11 9 8 7 7 6 4 2 3 6 2 11 17 14 10 10 10 10 9 7 7 5 2 2 3 2 2 3 5 7
7 9 11 12 12 13 15 17 16 13 9 9 10 10 9 9 7 7 7 5 1 2 4 5 3 12 11 6 4 4 6 7 5 5 5 4 3 3 3 3 4 5 6
5 8 10 13 13 13 14 16 16 13 10 9 9 9 9 9 8 7 7 5 3 4 4 3 3 5 7 7 6 6 7 8 6 6 5 4 5 5 4 4 6 7 6
4 6 9 12 14 14 15 15 16 15 11 9 10 9 8 9 9 8 7 6 5 4 5 5 6 7 7 7 7 8 9 9 8 7 8 9 10 11 11 7 9 9 9
5 6 8 12 13 14 14 15 16 15 12 10 11 10 8 8 9 9 9 7 7 8 8 7 8 9 9 9 8 8 10 10 8 10 12 13 14 15 15 10 8 9 10
7 9 11 12 11 12 12 13 15 17 15 13 12 11 9 8 8 8 10 9 9 12 13 12 12 12 11 11 10 10 11 11 11 11 12 13 13 13 14 10 8 9 9
8 10 12 11 10 10 9 10 13 16 15 14 14 13 11 10 10 9 11 12 12 13 15 17 16 14 13 13 12 12 12 13 13 12 11 11 10 9 11 10 12 11 10
7 9 11 11 12 12 10 9 11 16 16 14 15 14 13 12 11 10 11 13 13 14 16 18 18 16 15 15 14 14 14 14 14 13 12 10 10 9 9 12 14 11 11
8 10 12 12 13 12 10 9 11 16 17 15 15 16 14 13 12 11 10 12 13 14 15 16 16 17 16 16 16 16 16 15 15 14 13 13 11 11 11 14 11 10 11
10 12 13 13 12 14 11 9 12 16 18 15 14 15 14 13 13 12 9 10 13 13 14 14 14 17 18 19 20 18 18 17 17 15 14 13 12 13 14 14 12 12 12
12 14 16 14 16 16 12 10 11 14 17 16 15 14 13 13 13 11 9 9 12 13 14 15 13 15 17 19 18 16 17 18 18 17 14 14 14 14 16 17 15 14 14
15 16 16 15 16 18 16 13 12 13 14 17 16 13 10 11 13 12 10 9 10 12 14 15 12 11 13 15 16 15 15 15 15 15 13 14 15 16 16 17 17 16 17
16 18 18 18 17 19 19 16 19 17 17 18 18 14 9 10 12 13 11 10 9 13 15 15 15 10 9 11 11 14 17 13 12 12 12 14 16 16 15 16 16 16 18
16 19 20 19 19 21 20 18 22 24 22 16 15 15 12 10 13 14 13 11 10 13 15 15 15 10 7 9 10 11 14 15 12 12 12 13 14 14 14 14 17 18 17
17 20 22 21 19 20 21 21 24 21 13 9 14 15 14 12 13 15 15 13 11 14 13 14 16 12 8 10 11 11 11 12 12 12 13 14 15 15 13 14 17 19 20
17 19 23 23 20 20 20 22 21 16 15 16 15 14 13 11 13 15 16 15 13 14 14 14 14 12 8 9 9 11 11 10 10 11 13 15 17 17 16 15 15 17 18
15 17 19 21 21 20 21 21 18 13 16 15 13 15 12 12 14 16 16 16 15 15 14 15 14 14 8 7 6 6 7 9 10 12 14 15 17 18 16 14 14 14 13
17 16 17 19 21 21 21 19 16 16 19 17 17 17 13 13 14 14 14 17 16 16 17 18 16 15 11 9 7 3 5 7 8 11 13 15 17 18 17 16 15 14 14
17 16 17 17 19 20 19 18 18 20 20 19 21 17 13 12 13 13 14 16 17 18 18 18 15 18 13 9 9 6 6 6 7 8 9 12 15 18 19 19 18 18 17
19 18 18 18 18 17 18 18 20 23 23 21 20 21 18 17 17 17 17 20 20 19 20 21 17 16 15 13 11 9 9 8 8 7 7 9 13 15 18 19 19 20 21
20 19 19 20 18 18 20 21 23 25 24 21 21 23 22 23 23 21 22 22 22 22 22 21 21 20 20 17 13 11 12 11 9 9 10 11 11 12 14 15 17 18 19
22 21 21 20 20 21 22 24 28 28 24 21 21 22 23 27 28 27 26 27 26 26 27 23 20 21 21 19 16 14 14 14 12 13 13 13 12 13 14 14 16 17 18
23 23 22 20 20 22 22 25 26 23 21 22 24 25 26 28 28 30 31 32 32 31 32 29 26 24 23 22 19 19 19 18 17 17 16 17 17 16 16 15 16 16 17
24 23 24 21 20 21 22 21 19 18 18 22 27 29 28 28 27 28 33 34 34 33 34 31 30 27 25 24 23 23 24 21 19 20 18 17 19 20 19 17 17 17 17
Wind_Direction
49 42 25 8 3 1 356 352 356 4 5 2 3 351 334 323 315 311 306 313 304 269 239 222 210 204 215 221 201 210 204 193 220 210 206 284 320 13 44 153 175 168 167
49 49 40 23 5 355 350 348 346 354 355 352 355 347 336 322 314 307 301 312 335 13 178 198 207 203 205 206 202 207 210 197 217 211 201 302 302 267 164 176 129 168 164
44 47 45 32 10 360 351 344 343 345 346 346 348 347 340 321 307 303 298 292 322 41 63 63 224 200 183 178 195 217 197 191 201 214 221 241 252 255 242 193 177 208 212
36 40 39 31 10 356 350 343 344 344 341 339 340 340 336 322 295 292 299 298 282 133 94 71 141 167 144 170 191 210 178 189 198 207 216 216 237 262 262 226 234 259 238
29 41 35 28 9 352 347 344 342 341 335 326 326 334 329 324 306 293 295 288 243 172 150 149 149 150 170 198 199 195 198 206 218 219 219 232 251 261 272 257 243 256 222
4 24 24 17 3 353 348 346 340 340 332 318 314 324 322 315 317 302 301 275 246 214 188 178 188 192 202 209 210 197 206 216 234 256 269 273 269 267 267 262 252 229 209
352 2 11 6 355 351 350 348 341 338 333 317 310 314 313 301 301 290 281 266 245 230 220 211 211 208 209 213 216 215 216 228 245 266 278 280 275 264 259 257 244 206 196
346 359 5 0 351 348 351 347 343 340 336 321 310 304 298 292 292 286 270 256 248 240 232 227 227 224 221 219 218 223 227 237 247 263 275 279 275 261 247 235 216 192 190
346 358 0 353 352 352 346 343 343 337 335 326 311 299 298 298 297 286 270 258 253 245 239 235 234 233 231 231 227 226 234 247 255 262 271 276 270 245 224 209 195 175 166
336 346 351 346 354 354 340 336 335 334 333 328 316 304 300 298 299 293 277 263 256 250 241 235 237 241 238 235 232 232 237 246 254 262 268 270 256 228 211 197 176 174 170
331 341 346 342 352 351 333 334 328 332 332 328 320 307 300 293 293 293 284 265 256 250 243 240 238 234 231 231 230 232 239 245 252 258 262 257 243 222 206 187 178 187 187
331 342 347 339 342 348 328 317 325 327 328 323 319 313 303 289 283 285 280 259 252 247 242 242 242 239 239 233 232 235 242 250 255 254 256 251 237 221 208 203 198 201 198
329 339 348 344 336 342 331 314 332 317 319 321 316 315 304 287 276 271 266 253 254 247 247 248 243 251 244 231 229 237 245 246 252 253 250 242 226 214 209 207 207 204 198
328 337 342 342 333 340 333 308 320 314 322 323 315 311 305 283 267 259 251 250 248 245 252 248 239 249 238 230 228 233 240 244 248 243 237 230 214 207 205 207 209 206 202
329 334 339 341 340 335 333 318 319 319 314 314 309 303 295 284 269 258 242 234 238 244 248 251 245 240 249 246 236 232 233 236 247 238 231 221 209 205 203 203 204 207 209
324 328 337 338 336 332 329 316 316 323 317 311 300 300 290 278 266 259 242 232 236 246 249 246 244 227 238 252 243 235 232 233 242 239 226 217 207 202 206 208 209 213 213
320 325 330 335 333 328 322 309 310 317 302 298 307 305 301 285 260 252 242 237 241 246 243 244 243 220 213 243 242 239 242 236 231 232 223 218 207 203 208 213 214 217 222
315 324 325 327 325 317 310 303 304 308 304 309 311 307 296 276 260 249 244 242 242 245 240 235 240 229 224 237 243 235 235 232 224 223 219 215 211 209 211 215 216 221 226
314 321 321 320 316 308 300 297 295 295 306 306 311 311 286 259 267 253 240 236 238 239 240 237 236 239 218 229 246 253 231 225 220 222 219 217 217 217 213 214 215 217 222
307 312 317 316 309 307 303 296 285 285 298 292 296 312 283 254 262 257 239 235 233 232 232 232 239 233 219 233 245 241 218 219 224 226 223 220 218 220 218 219 223 223 228
302 310 316 316 306 304 302 299 294 290 292 289 285 294 270 257 261 248 241 240 235 234 232 234 238 226 217 212 219 207 205 210 215 220 219 217 216 218 220 224 229 233 236
300 305 309 311 304 297 294 293 295 292 292 288 280 268 263 263 270 258 252 245 239 235 231 232 232 217 217 213 216 214 217 218 218 212 206 208 213 217 220 223 229 236 240
292 296 300 303 299 292 292 292 294 293 288 281 269 264 262 265 263 257 257 249 237 231 233 231 224 227 223 218 216 214 216 221 223 225 216 208 210 220 227 231 233 238 243
291 291 295 299 299 295 294 291 290 285 278 267 259 258 257 262 261 257 255 241 231 230 236 231 216 220 228 230 224 223 222 228 237 241 231 221 217 222 227 233 237 240 245
291 289 289 292 290 290 290 291 290 282 268 258 257 258 260 265 265 253 248 239 232 231 237 233 229 231 238 230 228 234 234 236 239 239 235 231 228 230 233 233 239 244 248
293 293 291 288 283 287 290 287 282 278 271 265 265 267 270 272 262 250 243 234 231 228 233 231 235 237 231 224 233 237 240 243 237 230 230 233 234 230 232 239 243 246 249
Height
5887 5886 5884 5883 5882 5881 5880 5879 5878 5877 5877 5876 5875 5874 5874 5873 5872 5871 5870 5868 5866 5865 5864 5869 5873 5874 5878 5881 5882 5884 5886 5887 5887 5889 5891 5892 5893 5894 5895 5895 5895 5896 5897
5886 5886 5885 5883 5882 5881 5879 5879 5877 5877 5876 5875 5874 5873 5872 5871 5870 5871 5870 5868 5867 5865 5865 5867 5870 5872 5876 5879 5881 5883 5884 5885 5886 5889 5890 5891 5892 5893 5895 5895 5894 5895 5897
5886 5885 5884 5883 5882 5881 5879 5877 5877 5876 5875 5874 5873 5872 5871 5870 5869 5869 5869 5868 5868 5867 5866 5867 5870 5871 5874 5877 5880 5881 5882 5884 5886 5887 5889 5890 5891 5892 5894 5894 5895 5896 5897
5886 5885 5883 5883 5882 5880 5878 5876 5875 5875 5874 5873 5872 5871 5870 5869 5868 5868 5869 5869 5869 5869 5869 5870 5870 5871 5873 5877 5879 5881 5882 5884 5886 5887 5888 5889 5890 5892 5892 5893 5894 5894 5895
5886 5884 5883 5883 5881 5879 5877 5876 5874 5873 5873 5873 5872 5871 5870 5869 5868 5867 5867 5869 5869 5870 5870 5870 5871 5872 5875 5878 5880 5882 5884 5886 5887 5887 5888 5889 5890 5891 5892 5892 5892 5893 5893
5886 5884 5883 5882 5880 5879 5877 5875 5873 5873 5872 5872 5871 5870 5869 5869 5868 5867 5866 5867 5868 5869 5870 5870 5871 5872 5874 5877 5879 5881 5884 5886 5886 5887 5888 5889 5890 5891 5891 5891 5891 5891 5893
5886 5884 5883 5882 5879 5878 5876 5874 5873 5871 5871 5870 5869 5868 5867 5867 5866 5866 5866 5866 5867 5869 5870 5870 5871 5871 5873 5876 5878 5881 5883 5885 5885 5887 5887 5888 5888 5889 5890 5890 5890 5890 5891
5885 5884 5883 5881 5879 5877 5875 5873 5871 5870 5870 5869 5867 5866 5865 5865 5864 5864 5865 5865 5865 5867 5869 5869 5868 5870 5872 5874 5876 5879 5881 5883 5884 5885 5886 5885 5885 5886 5888 5888 5889 5890 5890
5884 5883 5881 5879 5876 5875 5873 5872 5870 5869 5867 5866 5865 5864 5864 5864 5864 5862 5862 5862 5863 5864 5866 5866 5866 5868 5870 5872 5874 5877 5879 5881 5883 5883 5884 5883 5883 5884 5885 5886 5888 5890 5890
5882 5881 5879 5877 5874 5872 5871 5870 5868 5867 5865 5864 5862 5861 5861 5861 5861 5860 5859 5860 5860 5861 5862 5863 5864 5865 5867 5870 5872 5874 5876 5879 5880 5880 5881 5881 5882 5883 5883 5885 5887 5889 5890
5881 5879 5877 5875 5873 5870 5869 5868 5867 5866 5863 5861 5860 5859 5858 5858 5858 5857 5857 5857 5858 5858 5860 5860 5862 5863 5865 5867 5869 5872 5873 5876 5877 5877 5879 5880 5881 5882 5883 5884 5887 5889 5890
5879 5877 5875 5872 5871 5868 5867 5866 5865 5864 5862 5860 5857 5856 5856 5855 5856 5856 5855 5855 5856 5856 5857 5858 5860 5861 5862 5864 5866 5869 5871 5873 5874 5875 5876 5877 5877 5879 5881 5884 5886 5888 5889
5876 5874 5872 5869 5867 5866 5865 5865 5863 5862 5860 5858 5855 5854 5853 5853 5853 5853 5853 5853 5853 5854 5855 5856 5858 5858 5859 5861 5863 5866 5868 5870 5871 5872 5873 5874 5875 5877 5879 5882 5885 5887 5889
5873 5871 5868 5866 5864 5862 5862 5861 5860 5858 5857 5856 5853 5851 5850 5850 5850 5850 5850 5851 5851 5852 5853 5855 5856 5856 5857 5859 5860 5862 5865 5866 5867 5869 5870 5871 5874 5876 5877 5879 5883 5886 5888
5868 5867 5865 5862 5861 5860 5859 5858 5857 5855 5853 5852 5850 5848 5847 5847 5848 5848 5848 5849 5849 5850 5851 5853 5854 5854 5857 5858 5858 5859 5861 5863 5864 5865 5866 5869 5871 5873 5875 5877 5880 5884 5886
5865 5863 5862 5859 5858 5855 5854 5853 5853 5851 5849 5847 5846 5845 5844 5844 5844 5845 5845 5846 5847 5847 5849 5851 5853 5853 5855 5856 5857 5857 5858 5859 5861 5862 5864 5866 5869 5871 5873 5875 5878 5882 5884
5862 5859 5857 5855 5853 5852 5850 5849 5848 5847 5845 5843 5843 5841 5841 5840 5840 5841 5842 5843 5844 5844 5846 5849 5850 5850 5852 5854 5854 5854 5856 5857 5858 5859 5861 5863 5866 5869 5872 5874 5877 5879 5881
5859 5855 5852 5850 5849 5848 5847 5845 5844 5844 5843 5841 5840 5838 5838 5838 5836 5837 5839 5841 5842 5842 5844 5846 5847 5849 5850 5851 5852 5853 5854 5855 5855 5857 5858 5861 5864 5867 5870 5873 5875 5877 5879
5855 5852 5850 5847 5846 5845 5844 5841 5839 5838 5838 5837 5835 5835 5836 5835 5834 5833 5836 5838 5839 5840 5842 5844 5845 5847 5849 5850 5850 5850 5851 5853 5853 5855 5857 5859 5862 5866 5869 5872 5874 5875 5878
5851 5849 5846 5844 5842 5840 5839 5837 5835 5835 5834 5832 5831 5831 5832 5832 5831 5831 5833 5836 5837 5838 5839 5841 5843 5845 5847 5849 5849 5849 5849 5850 5851 5853 5856 5857 5860 5864 5867 5869 5872 5873 5875
5846 5844 5842 5841 5839 5836 5833 5831 5831 5830 5830 5828 5826 5825 5824 5827 5828 5827 5830 5832 5833 5834 5836 5838 5840 5841 5845 5846 5848 5848 5850 5850 5851 5852 5854 5855 5858 5861 5864 5867 5869 5871 5873
5841 5839 5837 5835 5834 5831 5828 5827 5827 5826 5824 5823 5821 5823 5823 5825 5826 5825 5826 5828 5829 5831 5833 5834 5835 5838 5841 5845 5847 5847 5849 5850 5850 5851 5852 5855 5856 5859 5861 5864 5866 5869 5871
5837 5834 5832 5829 5828 5825 5823 5822 5821 5820 5819 5818 5817 5818 5819 5819 5821 5821 5822 5824 5825 5827 5829 5830 5831 5835 5838 5842 5845 5846 5847 5848 5849 5850 5851 5853 5855 5857 5859 5862 5864 5866 5867
5831 5829 5826 5823 5821 5819 5817 5816 5814 5812 5812 5812 5812 5812 5814 5815 5815 5815 5817 5819 5820 5822 5824 5826 5828 5831 5835 5839 5841 5843 5845 5847 5847 5847 5849 5851 5853 5855 5857 5859 5861 5862 5864
5824 5822 5820 5817 5815 5813 5811 5810 5808 5806 5806 5806 5806 5806 5808 5809 5808 5808 5810 5812 5814 5816 5819 5823 5825 5828 5831 5835 5838 5840 5841 5842 5843 5845 5846 5848 5850 5852 5855 5856 5858 5859 5860
5817 5814 5813 5811 5808 5806 5804 5803 5802 5801 5800 5800 5799 5800 5801 5801 5799 5800 5802 5803 5806 5809 5812 5817 5822 5825 5826 5830 5833 5835 5836 5838 5840 5841 5843 5844 5846 5849 5851 5853 5854 5855 5856